Flag for Germany Weather past 2 weeks in Gaggenau, Baden-Württemberg, Germany

Now
46 °F

Passing clouds.


Feels Like: 44 °F
Forecast: 32 / 51 °F
Wind: 5 mph from Southwest

Location: Karlsruhe - Baden Wurttemberg

Current Time: Feb 28, 2015 at 1:39:44 PM

Latest Report: Feb 28, 2015 at 1:20 PM


Visibility: N/A

Pressure: 30.12 "Hg

Humidity: 43%

Dew point: 25 °F

Location of GaggenauLocation

Historic Weather in Gaggenau — Graph

°F

Gaggenau temperature yesterday

Maximum temperature yesterday: 41 °F (at 4:20 AM)
Minimum temperature yesterday: 37 °F (at 7:50 PM)
Average temperature yesterday: 40 °F

Past Weeks' High & Low Weather Summary

 TemperatureHumidityPressure
High57 °F (Feb 20, 1:50 PM)100% (Feb 13, 12:20 PM)30.72 "Hg (Feb 13, 12:20 PM)
Low23 °F (Feb 20, 5:20 AM)31% (Feb 20, 3:50 PM)29.50 "Hg (Feb 21, 6:20 AM)
Average37 °F81%30.03 "Hg
* Reported Feb 13 12:20 PM — Feb 28 12:20 PM, Gaggenau, Weather by CustomWeather, © 2015

Note: Actual official high and low records may vary slightly from our data, if they occured in-between our weather recording intervals... More about our weather records

Advertising

Gaggenau weather history for previous 24 hours

 ConditionsComfort  
Time TempWeatherWind HumidityBarometerVisibility
12:20 PM
Sat, Feb 28
45 °FPassing clouds.5 mph61%30.15 "HgN/A
11:50 AM43 °FPassing clouds.5 mph71%30.18 "HgN/A
11:20 AM43 °FSunny.2 mph71%30.18 "Hg10 mi
10:50 AM41 °FPassing clouds.5 mph76%30.18 "HgN/A
10:20 AM41 °FPassing clouds.5 mph76%30.18 "HgN/A
9:50 AM39 °FSunny.6 mph81%30.18 "Hg10 mi
9:20 AM37 °FSunny.3 mph93%30.18 "Hg10 mi
8:50 AM34 °FSunny.2 mph93%30.21 "Hg10 mi
8:20 AM32 °FSunny.1 mph93%30.18 "Hg10 mi
7:50 AM30 °FFog.2 mph93%30.18 "HgN/A
7:20 AM32 °FFog.2 mph93%30.18 "HgN/A
6:50 AM30 °FFog.2 mph100%30.18 "HgN/A
6:20 AM30 °FLight fog.3 mph100%30.18 "Hg6 mi
5:50 AM32 °FPassing clouds.3 mph93%30.18 "Hg6 mi
5:20 AM32 °FPassing clouds.3 mph93%30.18 "Hg6 mi
10:50 PM
Fri, Feb 27
37 °FPassing clouds.3 mph93%30.18 "HgN/A
10:20 PM39 °FLight rain. Passing clouds.6 mph87%30.15 "HgN/A
9:50 PM37 °FLight rain. Partly cloudy.5 mph93%30.15 "HgN/A
9:20 PM37 °FLight rain. Passing clouds.5 mph93%30.15 "HgN/A
8:50 PM37 °FLight rain. Passing clouds.6 mph93%30.12 "HgN/A
8:20 PM39 °FLight rain. Passing clouds.1 mph87%30.12 "HgN/A
7:50 PM37 °FSprinkles. Partly cloudy.3 mph93%30.12 "HgN/A
7:20 PM39 °FSprinkles. Partly cloudy.No wind81%30.12 "HgN/A
6:50 PM39 °FPassing clouds.3 mph81%30.09 "HgN/A
6:20 PM39 °FPassing clouds.6 mph81%30.09 "HgN/A
5:50 PM39 °FPartly sunny.6 mph93%30.07 "Hg6 mi
5:20 PM39 °FPartly sunny.6 mph93%30.04 "Hg6 mi
4:50 PM41 °FLight rain. Partly sunny.6 mph87%30.04 "Hg4 mi
4:20 PM41 °FLight rain. Partly sunny.5 mph87%30.01 "Hg4 mi
3:50 PM41 °FDrizzle. Broken clouds.3 mph87%29.98 "Hg5 mi
3:20 PM41 °FPartly sunny.5 mph87%29.98 "Hg5 mi
2:50 PM41 °FBroken clouds.6 mph87%29.95 "Hg5 mi
2:20 PM41 °FLight rain. Broken clouds.7 mph87%29.95 "Hg5 mi
1:50 PM41 °FLight rain. Partly sunny.2 mph93%29.92 "Hg4 mi
1:20 PM41 °FLight rain. Partly sunny.2 mph93%29.92 "Hg4 mi
Weather by CustomWeather, © 2015

See weather overviewHow to use our weather pages